Terug naar catalogus

ATLAS 5 CENTAUR DEB

LostHEO
NORAD 44846·DEBRIS·🇺🇸 United States

Gelanceerd Sep 17, 2014 vanaf Cape Canaveral Space Force Station

Loading…

Volgende Passages (komende 24 uur)

TLE

VerouderdSource: Space-Track

Epoch: Aug 7, 2024, 20:19 UTC

1 44846U 14055CE  24220.84703022  .00000026  00000-0  00000+0 0  9994
2 44846  21.3486 101.8156 5487494 250.2410  44.6165  2.05816450 37219

Volg ATLAS 5 CENTAUR DEB in realtime met AllMySat

Download on the App Store